TimePST,TemperatureF,Dew PointF,Humidity,Sea Level PressureIn,VisibilityMPH,Wind Direction,Wind SpeedMPH,Gust SpeedMPH,PrecipitationIn,Events,Conditions,WindDirDegrees,DateUTC
12:14 AM,28.4,24.8,86,30.42,9.0,NNW,4.6,-,N/A,,Overcast,330,2013-01-19 08:14:00
12:53 AM,28.9,25.0,85,30.44,8.0,Calm,Calm,-,N/A,,Overcast,0,2013-01-19 08:53:00
1:53 AM,30.0,25.0,82,30.45,7.0,NW,5.8,-,N/A,,Overcast,320,2013-01-19 09:53:00
2:53 AM,30.0,25.0,82,30.46,7.0,NNW,3.5,-,N/A,,Overcast,330,2013-01-19 10:53:00
3:53 AM,30.0,25.0,82,30.46,7.0,NNW,3.5,-,N/A,,Overcast,340,2013-01-19 11:53:00
4:53 AM,30.0,25.0,82,30.47,7.0,Calm,Calm,-,N/A,,Overcast,0,2013-01-19 12:53:00
5:53 AM,30.0,25.0,82,30.47,7.0,Calm,Calm,-,N/A,,Overcast,0,2013-01-19 13:53:00
6:53 AM,30.0,25.0,82,30.48,7.0,Calm,Calm,-,N/A,,Overcast,0,2013-01-19 14:53:00
7:53 AM,30.0,26.1,85,30.50,5.0,Calm,Calm,-,N/A,,Overcast,0,2013-01-19 15:53:00
8:53 AM,30.0,25.0,82,30.51,5.0,Calm,Calm,-,N/A,,Haze,0,2013-01-19 16:53:00
9:53 AM,30.0,25.0,82,30.53,5.0,Calm,Calm,-,N/A,,Haze,0,2013-01-19 17:53:00
10:53 AM,30.0,25.0,82,30.53,5.0,WNW,3.5,-,N/A,,Haze,290,2013-01-19 18:53:00
11:53 AM,30.0,25.0,82,30.51,8.0,Calm,Calm,-,N/A,,Overcast,0,2013-01-19 19:53:00
12:29 PM,30.2,24.8,80,30.49,2.0,NNW,3.5,-,0.00,Snow,Light Snow,330,2013-01-19 20:29:00
12:53 PM,30.0,26.1,85,30.50,2.0,NW,3.5,-,0.00,,Overcast,310,2013-01-19 20:53:00
1:53 PM,30.0,25.0,82,30.49,2.5,WNW,3.5,-,N/A,,Haze,290,2013-01-19 21:53:00
2:00 PM,30.2,24.8,80,30.47,4.0,Calm,Calm,-,N/A,,Haze,0,2013-01-19 22:00:00
2:53 PM,30.0,25.0,82,30.49,4.0,Calm,Calm,-,N/A,,Haze,0,2013-01-19 22:53:00
3:53 PM,30.0,25.0,82,30.49,4.0,North,5.8,-,N/A,,Haze,360,2013-01-19 23:53:00
4:53 PM,28.9,25.0,85,30.49,7.0,NW,4.6,-,N/A,,Overcast,320,2013-01-20 00:53:00
5:53 PM,28.9,24.1,82,30.50,10.0,Calm,Calm,-,N/A,,Overcast,0,2013-01-20 01:53:00
6:53 PM,28.9,25.0,85,30.51,10.0,Calm,Calm,-,N/A,,Overcast,0,2013-01-20 02:53:00
7:53 PM,28.9,25.0,85,30.53,9.0,Calm,Calm,-,N/A,,Overcast,0,2013-01-20 03:53:00
9:53 PM,30.0,25.0,82,30.54,9.0,Calm,Calm,-,N/A,,Overcast,0,2013-01-20 05:53:00
10:42 PM,28.4,24.8,86,30.53,8.0,SSE,4.6,-,N/A,,Overcast,150,2013-01-20 06:42:00
10:53 PM,28.9,25.0,85,30.54,8.0,SSE,4.6,-,N/A,,Overcast,150,2013-01-20 06:53:00
11:53 PM,28.9,25.0,85,30.55,8.0,SE,3.5,-,N/A,,Overcast,140,2013-01-20 07:53:00